Location: Chin
(49.7667°N, 112.4500°W)
Time: 12:09:09
(UTC+00:00)

N. Korean satellite - Pass Details

Date: 07 December 2021
Orbit: 447 x 491 km, 97.3° (Epoch: 21 January)

Event Time Altitude Azimuth Distance (km) Brightness Sun altitude
Rises 14:20:42 0° 353° (N) 2,468 9.8 -8.2°
Maximum altitude 14:24:58 10° 300° (WNW) 1,555 8.4 -7.5°
Drops below altitude 10° 14:25:38 10° 289° (WNW) 1,581 8.5 -7.4°
Sets 14:29:14 0° 248° (WSW) 2,447 9.7 -6.9°
